Meath Environmental Platform

Observations for Trim Patrick St

Time AQI Temp °C Hum % Pres Pa CO μg/m³ H₂S μg/m³ NO μg/m³ NO₂ μg/m³ O₃ μg/m³ SO₂ μg/m³ PM1 μg/m³ PM2.5 μg/m³ PM10 μg/m³
Monday 3 August 2026
07:08 1 17.1 74 38,460 0.2 0 1.61 11.62 46.96 0 4.57 8.46 9.3
07:07 1 17.1 74 38,460 0.2 0 1.71 11.75 45.85 0 3.71 7.02 7.73
07:06 1 17 74 38,460 0.21 0 1.78 12.99 34.61 0 5.43 8.45 9.29
07:05 1 17 74 38,460 0.18 0 1.83 9.6 50.65 0 4.57 9.87 10.85
07:04 1 17 74 38,460 0.2 0 1.8 11.58 43.87 0 4.57 7.72 8.49
07:03 1 17 74 38,460 0.21 0 1.92 10.96 45.66 0 2.86 7 7.7
07:02 1 16.9 75 38,460 0.2 0 1.84 11.29 43.84 0 4.57 8.42 9.26
07:01 1 16.9 75 38,460 0.2 0 1.89 10.34 46.5 0 3.71 7.68 8.45
07:00 1 16.8 75 38,460 0.2 0 1.94 12.26 42.61 0 4.57 8.39 9.23
06:59 1 16.8 75 38,460 0.19 0 2.01 12.26 45.34 0 3.71 6.97 7.66
06:58 1 16.8 75 38,460 0.2 0 1.93 12.42 34.24 0 4.57 8.37 9.2
06:57 1 16.7 75 38,460 0.21 0 1.9 11.64 45.15 0 5.43 9.78 10.76
06:56 1 16.7 76 38,460 0.2 0 1.98 9.97 43.92 0 3.71 7.64 8.41
06:55 1 16.7 76 38,460 0.21 0 1.85 12.4 38.05 0 4.57 7.61 8.38
06:54 1 16.6 76 38,460 0.21 0 1.66 14.27 36.64 0 4.57 9.03 9.93
06:53 1 16.6 76 38,460 0.21 0 1.82 13.71 38.37 0 4.57 8.32 9.15
06:52 1 16.6 76 38,460 0.2 0 1.81 10.73 40.35 0 4.57 7.59 8.35
06:51 1 16.5 76 38,460 0.21 0 1.72 12.86 44.86 0 3.71 6.87 7.56
06:50 1 16.5 77 38,460 0.22 0 1.79 13.52 43.26 0 6.29 10.39 11.43
06:49 1 16.5 77 38,460 0.2 0 1.99 13.28 41.46 0 4.57 8.97 9.87